Tracking 17857 objects as of 30-September-2016
HD Live streaming from Space Station
objects crossing your sky now

CRRES DEB (CANISTER)

Track CRRES DEB (CANISTER) now!


NORAD ID: 27051
Int'l Code: 1990-065U
Perigee: 305.4 km
Apogee: 30,256.3 km
Inclination: 18.2 °
Period: 528.4 minutes
Semi major axis: 21651 km
RCS: 0.1304 m2 (medium)
Launch date: July 25, 1990
Source: United States (US)
Launch site: AIR FORCE EASTERN TEST RANGE (AFETR)

Note: This is SATELLITE DEBRIS
Your satellite tracking list
Your tracking list is empty





NASA's NSSDC Master Catalog

Two Line Element Set (TLE):
1 27051U 90065U   16272.34168417  .00001067  00000-0  72651-3 0  9995
2 27051  18.2428 353.4446 6916475 347.1615   1.8012  2.72495622162219
Source of the keplerian elements: AFSPC

N2YO: 937